Regional Weather Roundup
Issued by NWS

Home | Current Version | Previous Version | Text Only | Print | Product List | Glossary Off
Versions: 1 2 3 4 5 6 7 8 9 10 11 12 13 14 15 16 17 18 19 20 21 22 23 24 25 26 27 28 29 30 31 32 33 34 35 36 37 38 39 40 41 42 43 44 45 46 47 48 49 50

000
ASUS45 KSLC 182210
RWRUT

UTAH REGIONAL WEATHER ROUNDUP
NATIONAL WEATHER SERVICE SALT LAKE CITY UT
400 PM MDT THU SEP 18 2014

UTZ001>011-023>025-182300-

NORTHERN UTAH

CITY           SKY/WX    TMP DP  RH WIND       PRES   REMARKS
HILL AFB       MOSUNNY   89  48  24 S16G22    29.84F
LOGAN          SUNNY     87  51  28 SW15      29.81F
OGDEN          SUNNY     90  46  21 S17       29.80F
PROVO AIRPORT  MOSUNNY   88  48  25 VRB5      29.85F
SALT LAKE CITY MOSUNNY   91  44  19 S20       29.78F
VERNAL         SUNNY     83  43  24 CALM      29.94F
WENDOVER       MOSUNNY   90  48  24 SE17      29.76F
HEBER CITY     MOSUNNY   86  43  22 SW16      29.90F
WEST JORDAN    SUNNY     90  46  22 SE13      29.83F

$$

UTZ012>022-026-027-182300-

SOUTHERN UTAH

CITY           SKY/WX    TMP DP  RH WIND       PRES   REMARKS
BRYCE CANYON   SUNNY     72  44  36 S13G20    30.13F
CEDAR CITY     SUNNY     82  48  30 SW17G25   29.94F
MILFORD        SUNNY     89  46  22 SW24G32   29.87F
MOAB/CYNLANDS  SUNNY     89  43  20 VRB7      29.87F
PRICE          SUNNY     85  43  22 CALM      29.98F
ST GEORGE      MOCLDY    91  54  27 W6        29.78F

$$

REGIONAL REPORTS     COLORADO/ARIZONA

CITY           SKY/WX    TMP DP  RH WIND       PRES   REMARKS
CRAIG, CO      MOSUNNY   86  37  17 MISG      29.99F
GRAND JUNCTION SUNNY     86  46  24 W8        29.90F
RIFLE          SUNNY     86  35  16 W7        29.94F
MONTROSE       SUNNY     86  37  17 NW10      29.98F
CORTEZ         SUNNY     82  41  23 W8        30.01F
PAGE, AZ       SUNNY     89  48  24 N8        29.88F
GRAND CANYON   MOSUNNY   78  47  33 SW8       30.07F
KINGMAN        MOSUNNY   89  55  31 SW9G24    29.85F
FLAGSTAFF      PTSUNNY   74  50  42 NE5       30.10F

$$

REGIONAL REPORTS    NEVADA/IDAHO/WYOMING

CITY           SKY/WX    TMP DP  RH WIND       PRES   REMARKS
LAS VEGAS, NV  MOSUNNY   97  31   9 S20G26    29.68F HX  91
ELY            CLOUDY    79  46  31 S14G30    29.94F
ELKO           PTSUNNY   73  53  49 E13G24    29.86S
POCATELLO, ID  PTSUNNY   79  47  32 SW9       29.85F
BURLEY         CLOUDY    74  47  38 W9        29.84F HAZE
EVANSTON, WY   MOSUNNY   81  37  20 W21       30.02F
ROCK SPRINGS   PTSUNNY   82  33  17 VRB6      30.00F

$$


USA.gov is the U.S. government's official web portal to all federal, state and local government web resources and services.